,,PA_Meas_PMT16A,,PR_Meas_QMR101_102,,RH_Meas_QMH101,,SR_Meas_QMS101,,TA_Meas_QMH101,,GenWind,,GenWind,
time,status,PA,status,PR,status,RH,status,SR,status,TA,status,DirAvg,status,SpdAvg,
2014-04-02, 00:08:04,INVALID - VALUE NOT AVAILABLE,0,INVALID - VALUE NOT AVAILABLE,0,INVALID - VALUE NOT AVAILABLE,0,INVALID - VALUE NOT AVAILABLE,0,INVALID - VALUE NOT AVAILABLE,0,VALID,176,VALID,0.471788,
2014-04-02, 00:50:04,INVALID - VALUE NOT AVAILABLE,0,INVALID - VALUE NOT AVAILABLE,0,INVALID - VALUE NOT AVAILABLE,0,INVALID - VALUE NOT AVAILABLE,0,INVALID - VALUE NOT AVAILABLE,0,INVALID,360,INVALID,0,
2014-04-02, 01:18:04,INVALID - VALUE NOT AVAILABLE,0,INVALID - VALUE NOT AVAILABLE,0,INVALID - VALUE NOT AVAILABLE,0,INVALID - VALUE NOT AVAILABLE,0,INVALID - VALUE NOT AVAILABLE,0,INVALID,360,INVALID,0,
2014-04-02, 07:03:04,VALID,916.009,VALID,0,VALID,96.6802,VALID,61.9935,VALID,19.4118,VALID,44,VALID,1.07617,
2014-04-02, 07:04:04,VALID,916.027,VALID,0,VALID,96.703,VALID,65.4317,VALID,19.4508,VALID,44,VALID,1.03828,
2014-04-02, 07:05:04,VALID,916.041,VALID,0,VALID,96.6649,VALID,69.6219,VALID,19.4508,VALID,44,VALID,0.698438,
2014-04-02, 07:06:04,VALID,916.057,VALID,0,VALID,96.6802,VALID,72.9525,VALID,19.4118,VALID,44,VALID,0.915234,
2014-04-02, 07:07:04,VALID,916.058,VALID,0,VALID,96.6954,VALID,76.0683,VALID,19.4313,VALID,44,VALID,0.525391,
2014-04-02, 07:08:04,VALID,916.048,VALID,0,VALID,96.6802,VALID,80.0437,VALID,19.4508,VALID,44,VALID,0.755469,
2014-04-02, 07:09:04,VALID,916.063,VALID,0,VALID,96.6725,VALID,83.6967,VALID,19.4703,VALID,44,VALID,0.828125,
2014-04-02, 07:10:04,VALID,916.065,VALID,0,VALID,96.6573,VALID,88.2092,VALID,19.4898,VALID,44,VALID,0.813281,
2014-04-02, 07:11:04,VALID,916.09,VALID,0,VALID,96.6725,VALID,91.0027,VALID,19.4898,VALID,44,VALID,0.876562,
2014-04-02, 07:12:04,VALID,916.067,VALID,0,VALID,96.6802,VALID,91.7547,VALID,19.5093,VALID,44,VALID,0.554297,
2014-04-02, 07:13:04,VALID,916.099,VALID,0,VALID,96.6649,VALID,95.8375,VALID,19.4883,VALID,44,VALID,0.456641,
2014-04-02, 07:14:04,VALID,916.069,VALID,0,VALID,96.6725,VALID,100.995,VALID,19.5873,VALID,44,VALID,0.610937,
2014-04-02, 07:15:04,VALID,916.045,VALID,0,VALID,96.6649,VALID,103.788,VALID,19.5468,VALID,44,VALID,0.901172,
2014-04-02, 07:16:04,VALID,916.037,VALID,0,VALID,96.6725,VALID,106.904,VALID,19.5483,VALID,44,VALID,0.844141,
2014-04-02, 07:17:04,VALID,916.038,VALID,0,VALID,96.6725,VALID,110.557,VALID,19.5678,VALID,44,VALID,0.574609,
2014-04-02, 07:18:04,VALID,916.058,VALID,0,VALID,96.6802,VALID,114.747,VALID,19.6263,VALID,44,VALID,0.471484,
2014-04-02, 07:19:04,VALID,916.036,VALID,0,VALID,96.6649,VALID,120.979,VALID,19.7238,VALID,44,VALID,0.634766,
2014-04-02, 07:20:04,VALID,916.06,VALID,0,VALID,96.6344,VALID,127.748,VALID,19.8408,VALID,44,VALID,0.470703,
2014-04-02, 07:21:04,VALID,916.092,VALID,0,VALID,96.6573,VALID,131.401,VALID,19.8603,VALID,44,VALID,0.741406,
2014-04-02, 07:22:04,VALID,916.111,VALID,0,VALID,96.6344,VALID,134.946,VALID,19.8798,VALID,44,VALID,0.480469,
2014-04-02, 07:23:04,VALID,916.155,VALID,0,VALID,96.6268,VALID,137.954,VALID,19.9188,VALID,44,VALID,0.632813,
2014-04-02, 07:24:04,VALID,916.166,VALID,0,VALID,96.6192,VALID,141.93,VALID,19.9578,VALID,44,VALID,0.208203,
2014-04-02, 07:25:04,VALID,916.186,VALID,0,VALID,96.6115,VALID,145.905,VALID,19.9773,VALID,44,VALID,0.384375,
2014-04-02, 07:26:04,VALID,916.199,VALID,0,VALID,96.5963,VALID,147.946,VALID,20.0538,VALID,44,VALID,0.169141,
2014-04-02, 07:27:04,VALID,916.192,VALID,0,VALID,96.6344,VALID,150.525,VALID,19.9383,VALID,44,VALID,0.679688,
2014-04-02, 07:28:04,VALID,916.237,VALID,0,VALID,96.6344,VALID,153.963,VALID,19.9173,VALID,44,VALID,0.538281,
2014-04-02, 07:29:04,VALID,916.213,VALID,0,VALID,96.6039,VALID,158.368,VALID,20.0358,VALID,44,VALID,0.501172,
2014-04-02, 07:30:04,VALID,916.274,VALID,0,VALID,96.6192,VALID,161.914,VALID,20.0148,VALID,44,VALID,0.553516,
2014-04-02, 07:31:04,VALID,916.268,VALID,0,VALID,96.5811,VALID,163.096,VALID,20.1529,VALID,44,VALID,0.546484,
2014-04-02, 07:32:04,VALID,916.279,VALID,0,VALID,96.5811,VALID,170.724,VALID,20.1903,VALID,44,VALID,0.624219,
2014-04-02, 07:33:04,VALID,916.326,VALID,0,VALID,96.5887,VALID,173.195,VALID,20.2309,VALID,44,VALID,0.705859,
2014-04-02, 07:34:04,VALID,916.328,VALID,0,VALID,96.5811,VALID,170.724,VALID,20.2684,VALID,44,VALID,0.583203,
2014-04-02, 07:35:04,VALID,916.347,VALID,0,VALID,96.6039,VALID,188.129,VALID,20.1529,VALID,161,VALID,1.10859,
2014-04-02, 07:36:04,VALID,916.391,VALID,0,VALID,96.5963,VALID,196.832,VALID,20.1708,VALID,161,VALID,0.801953,
2014-04-02, 07:37:04,VALID,916.369,VALID,0,VALID,96.6039,VALID,214.667,VALID,20.2098,VALID,156,VALID,0.541797,
2014-04-02, 07:38:04,VALID,916.378,VALID,0,VALID,96.5734,VALID,211.981,VALID,20.2684,VALID,175,VALID,0.410156,
2014-04-02, 07:39:04,VALID,916.386,VALID,0,VALID,96.5811,VALID,225.949,VALID,20.2489,VALID,148,VALID,0.741797,
2014-04-02, 07:40:04,VALID,916.377,VALID,0,VALID,96.5887,VALID,226.701,VALID,20.2098,VALID,162,VALID,1.02227,
2014-04-02, 07:41:04,VALID,916.384,VALID,0,VALID,96.5887,VALID,256.247,VALID,20.2293,VALID,156,VALID,1.25508,
2014-04-02, 07:42:04,VALID,916.424,VALID,0,VALID,96.5658,VALID,269.248,VALID,20.2489,VALID,151,VALID,1.08828,
2014-04-02, 07:43:04,VALID,916.422,VALID,0,VALID,96.5811,VALID,288.909,VALID,20.3074,VALID,156,VALID,0.728125,
2014-04-02, 07:44:04,VALID,916.468,VALID,0,VALID,96.5277,VALID,300.728,VALID,20.4244,VALID,159,VALID,0.724609,
2014-04-02, 07:45:04,INVALID - VALUE NOT AVAILABLE,0,INVALID - VALUE NOT AVAILABLE,0,INVALID - VALUE NOT AVAILABLE,0,INVALID - VALUE NOT AVAILABLE,0,INVALID - VALUE NOT AVAILABLE,0,INVALID,360,INVALID,0,
2014-04-02, 07:46:04,VALID,916.48,VALID,0,VALID,96.5429,VALID,309.216,VALID,20.4244,VALID,165,VALID,1.29688,
2014-04-02, 07:47:04,VALID,916.443,VALID,0,VALID,96.5734,VALID,312.331,VALID,20.4049,VALID,133,VALID,1.02617,
2014-04-02, 07:48:04,VALID,916.455,VALID,0,VALID,96.5353,VALID,318.026,VALID,20.5219,VALID,135,VALID,0.811328,
2014-04-02, 07:49:04,VALID,916.447,VALID,0,VALID,96.4972,VALID,316.844,VALID,20.6959,VALID,159,VALID,0.836328,
2014-04-02, 07:50:04,VALID,916.437,VALID,0,VALID,96.4896,VALID,327.158,VALID,20.6959,VALID,152,VALID,0.762109,
2014-04-02, 07:51:04,VALID,916.413,VALID,0,VALID,96.5048,VALID,338.44,VALID,20.6959,VALID,152,VALID,0.792578,
2014-04-02, 07:52:04,VALID,916.397,VALID,0,VALID,96.5048,VALID,343.167,VALID,20.6959,VALID,138,VALID,1.10625,
2014-04-02, 07:53:04,VALID,916.378,VALID,0,VALID,96.4667,VALID,347.572,VALID,20.7934,VALID,148,VALID,1.12109,
2014-04-02, 07:54:04,VALID,916.373,VALID,0,VALID,96.4743,VALID,352.837,VALID,20.7934,VALID,138,VALID,1.32266,
2014-04-02, 07:55:04,VALID,916.379,VALID,0,VALID,96.4667,VALID,359.391,VALID,20.8714,VALID,163,VALID,1.12109,
2014-04-02, 07:56:04,VALID,916.378,VALID,0,VALID,96.4362,VALID,364.548,VALID,20.8714,VALID,145,VALID,1.31211,
2014-04-02, 07:57:04,VALID,916.408,VALID,0,VALID,96.4667,VALID,363.259,VALID,20.8519,VALID,149,VALID,1.71172,
2014-04-02, 07:58:04,VALID,916.396,VALID,0,VALID,96.421,VALID,348.109,VALID,20.9105,VALID,154,VALID,1.12109,
2014-04-02, 07:59:04,VALID,916.409,VALID,0,VALID,96.4057,VALID,344.671,VALID,20.9105,VALID,157,VALID,2.01563,
2014-04-02, 08:00:04,VALID,916.45,VALID,0,VALID,96.3905,VALID,345.746,VALID,20.9511,VALID,160,VALID,1.48047,
2014-04-02, 08:01:04,VALID,916.439,VALID,0,VALID,96.3676,VALID,350.903,VALID,20.8925,VALID,150,VALID,2.76641,
2014-04-02, 08:02:04,VALID,916.476,VALID,0,VALID,96.3066,VALID,363.473,VALID,20.8925,VALID,153,VALID,2.18281,
2014-04-02, 08:03:04,VALID,916.483,VALID,0,VALID,96.2456,VALID,377.871,VALID,20.912,VALID,144,VALID,1.69336,
2014-04-02, 08:04:04,VALID,916.491,VALID,0,VALID,96.2228,VALID,389.797,VALID,20.9511,VALID,140,VALID,1.76563,
2014-04-02, 08:05:04,VALID,916.487,VALID,0,VALID,96.177,VALID,401.078,VALID,21.0486,VALID,157,VALID,1.48633,
2014-04-02, 08:06:04,VALID,916.48,VALID,0,VALID,96.1313,VALID,401.937,VALID,21.047,VALID,153,VALID,1.9457,
2014-04-02, 08:07:04,VALID,916.461,VALID,0,VALID,96.0703,VALID,401.293,VALID,21.1657,VALID,145,VALID,1.76875,
2014-04-02, 08:08:04,VALID,916.462,VALID,0,VALID,95.9864,VALID,404.838,VALID,21.1836,VALID,155,VALID,1.29766,
2014-04-02, 08:09:04,VALID,916.457,VALID,0,VALID,95.8645,VALID,403.656,VALID,21.2226,VALID,156,VALID,2.15937,
2014-04-02, 08:10:04,VALID,916.47,VALID,0,VALID,95.59,VALID,398.499,VALID,21.2421,VALID,148,VALID,1.98477,
2014-04-02, 08:11:04,VALID,916.498,VALID,0,VALID,95.3994,VALID,388.937,VALID,21.3786,VALID,169,VALID,1.7332,
2014-04-02, 08:12:04,VALID,916.517,VALID,0,VALID,94.7743,VALID,365.837,VALID,21.3201,VALID,161,VALID,1.30742,
2014-04-02, 08:13:04,VALID,916.516,VALID,0,VALID,94.1034,VALID,351.762,VALID,21.3575,VALID,161,VALID,2.21602,
2014-04-02, 08:14:04,VALID,916.546,VALID,0,VALID,92.5635,VALID,355.523,VALID,21.3575,VALID,166,VALID,1.93945,
2014-04-02, 08:15:04,VALID,916.556,VALID,0,VALID,92.3806,VALID,353.374,VALID,21.4762,VALID,163,VALID,1.05859,
2014-04-02, 08:16:04,VALID,916.549,VALID,0,VALID,91.0236,VALID,356.382,VALID,21.4177,VALID,154,VALID,2.52813,
2014-04-02, 08:17:04,VALID,916.555,VALID,0,VALID,90.6805,VALID,366.052,VALID,21.4372,VALID,157,VALID,2.21016,
2014-04-02, 08:18:04,VALID,916.576,VALID,0,VALID,90.8559,VALID,361.002,VALID,21.3965,VALID,167,VALID,1.29062,
2014-04-02, 08:19:04,VALID,916.599,VALID,0,VALID,90.8025,VALID,356.597,VALID,21.4746,VALID,156,VALID,1.68984,
2014-04-02, 08:20:04,VALID,916.626,VALID,0,VALID,89.9258,VALID,381.201,VALID,21.4957,VALID,147,VALID,1.88945,
2014-04-02, 08:21:04,VALID,916.638,VALID,0,VALID,90.4823,VALID,390.763,VALID,21.5737,VALID,105,VALID,0.959766,
2014-04-02, 08:22:04,VALID,916.634,VALID,0,VALID,90.2231,VALID,394.954,VALID,21.6111,VALID,145,VALID,1.62305,
2014-04-02, 08:23:04,VALID,916.684,VALID,0,VALID,89.9639,VALID,401.615,VALID,21.6501,VALID,146,VALID,1.95039,
2014-04-02, 08:24:04,VALID,916.696,VALID,0,VALID,88.7899,VALID,404.086,VALID,21.6518,VALID,155,VALID,2.10469,
2014-04-02, 08:25:04,VALID,916.708,VALID,0,VALID,89.8191,VALID,409.566,VALID,21.7477,VALID,135,VALID,1.69727,
2014-04-02, 08:26:04,VALID,916.709,VALID,0,VALID,89.0415,VALID,403.656,VALID,21.8062,VALID,144,VALID,2.3832,
2014-04-02, 08:27:04,VALID,916.743,VALID,0,VALID,89.6742,VALID,401.83,VALID,21.9233,VALID,135,VALID,1.45664,
2014-04-02, 08:28:04,VALID,916.74,VALID,0,VALID,89.4303,VALID,392.053,VALID,22.0598,VALID,129,VALID,1.51914,
2014-04-02, 08:29:04,VALID,916.738,VALID,0,VALID,87.9209,VALID,381.631,VALID,22.0794,VALID,144,VALID,2.15625,
2014-04-02, 08:30:04,VALID,916.73,VALID,0,VALID,87.0442,VALID,374.325,VALID,22.0598,VALID,139,VALID,2.35625,
2014-04-02, 08:31:04,VALID,916.765,VALID,0,VALID,87.1128,VALID,370.887,VALID,22.0794,VALID,155,VALID,2.58398,
2014-04-02, 08:32:04,VALID,916.78,VALID,0,VALID,86.8536,VALID,360.358,VALID,22.0794,VALID,144,VALID,2.41523,
2014-04-02, 08:33:04,VALID,916.751,VALID,0,VALID,87.654,VALID,349.399,VALID,22.1201,VALID,155,VALID,1.84492,
2014-04-02, 08:34:04,VALID,916.726,VALID,0,VALID,88.1648,VALID,339.084,VALID,22.1574,VALID,136,VALID,1.64102,
2014-04-02, 08:35:04,VALID,916.792,VALID,0,VALID,87.5549,VALID,322.646,VALID,22.1964,VALID,156,VALID,2.03477,
2014-04-02, 08:36:04,VALID,916.77,VALID,0,VALID,86.1598,VALID,317.918,VALID,22.1574,VALID,148,VALID,2.30859,
2014-04-02, 08:37:04,VALID,916.785,VALID,0,VALID,86.2894,VALID,322.968,VALID,22.1379,VALID,145,VALID,2.35742,
2014-04-02, 08:38:04,VALID,916.788,VALID,0,VALID,87.6159,VALID,327.051,VALID,22.1786,VALID,150,VALID,0.938281,
2014-04-02, 08:39:04,VALID,916.817,VALID,0,VALID,87.9132,VALID,333.068,VALID,22.2371,VALID,159,VALID,1.39727,
2014-04-02, 08:40:04,VALID,916.824,VALID,0,VALID,86.846,VALID,334.142,VALID,22.3152,VALID,142,VALID,1.5875,
2014-04-02, 08:41:04,VALID,916.824,VALID,0,VALID,86.0379,VALID,331.349,VALID,22.3135,VALID,136,VALID,2.0582,
2014-04-02, 08:42:04,VALID,916.802,VALID,0,VALID,86.9451,VALID,319.53,VALID,22.3916,VALID,149,VALID,1.49961,
2014-04-02, 08:43:04,VALID,916.815,VALID,0,VALID,86.137,VALID,306.315,VALID,22.4128,VALID,149,VALID,2.27266,
2014-04-02, 08:44:04,VALID,916.803,VALID,0,VALID,85.3746,VALID,295.033,VALID,22.3916,VALID,143,VALID,2.05117,
2014-04-02, 08:45:04,VALID,916.81,VALID,0,VALID,86.4419,VALID,291.703,VALID,22.4111,VALID,159,VALID,1.25742,
2014-04-02, 08:46:04,VALID,916.82,VALID,0,VALID,86.5868,VALID,296,VALID,22.4111,VALID,154,VALID,0.909766,
2014-04-02, 08:47:04,VALID,916.8,VALID,0,VALID,85.4737,VALID,295.248,VALID,22.4111,VALID,157,VALID,1.93906,
2014-04-02, 08:48:04,VALID,916.761,VALID,0,VALID,85.5119,VALID,297.29,VALID,22.3525,VALID,141,VALID,2.23828,
2014-04-02, 08:49:04,VALID,916.78,VALID,0,VALID,85.6186,VALID,308.786,VALID,22.333,VALID,158,VALID,1.96992,
2014-04-02, 08:50:04,VALID,916.78,VALID,0,VALID,86.076,VALID,317.274,VALID,22.3525,VALID,150,VALID,1.80742,
2014-04-02, 08:51:04,VALID,916.782,VALID,0,VALID,84.7419,VALID,315.232,VALID,22.3135,VALID,157,VALID,1.98281,
2014-04-02, 08:52:04,VALID,916.797,VALID,0,VALID,84.5437,VALID,317.489,VALID,22.3135,VALID,161,VALID,2.90937,
2014-04-02, 08:53:04,VALID,916.8,VALID,0,VALID,85.9007,VALID,314.265,VALID,22.372,VALID,141,VALID,1.70508,
2014-04-02, 08:54:04,VALID,916.786,VALID,0,VALID,86.541,VALID,326.299,VALID,22.4111,VALID,133,VALID,1.55469,
2014-04-02, 08:55:04,VALID,916.791,VALID,0,VALID,85.4204,VALID,336.935,VALID,22.4111,VALID,118,VALID,2.12891,
2014-04-02, 08:56:04,VALID,916.84,VALID,0,VALID,85.2755,VALID,338.117,VALID,22.4111,VALID,165,VALID,1.71797,
2014-04-02, 08:57:04,VALID,916.803,VALID,0,VALID,84.376,VALID,347.142,VALID,22.4111,VALID,183,VALID,2.10977,
2014-04-02, 08:58:04,VALID,916.792,VALID,0,VALID,85.2145,VALID,344.886,VALID,22.5477,VALID,184,VALID,1.74063,
2014-04-02, 08:59:04,VALID,916.802,VALID,0,VALID,85.6186,VALID,345.961,VALID,22.6452,VALID,163,VALID,1.15898,
2014-04-02, 09:00:04,VALID,916.787,VALID,0,VALID,85.5195,VALID,341.018,VALID,22.7216,VALID,151,VALID,1.26289,
2014-04-02, 09:01:04,VALID,916.837,VALID,0,VALID,85.5119,VALID,319.423,VALID,22.8191,VALID,174,VALID,0.942969,
2014-04-02, 09:02:04,VALID,916.82,VALID,0,VALID,83.5526,VALID,319.637,VALID,22.8404,VALID,154,VALID,1.84961,
2014-04-02, 09:03:04,VALID,916.79,VALID,0,VALID,84.1473,VALID,313.943,VALID,22.8191,VALID,142,VALID,1.11289,
2014-04-02, 09:04:04,VALID,916.791,VALID,0,VALID,84.3455,VALID,315.555,VALID,22.8582,VALID,180,VALID,1.63945,
2014-04-02, 09:05:04,VALID,916.804,VALID,0,VALID,84.8486,VALID,322.861,VALID,22.9167,VALID,183,VALID,0.876172,
2014-04-02, 09:06:04,VALID,916.774,VALID,0,VALID,85.1231,VALID,320.604,VALID,22.9753,VALID,154,VALID,0.464063,
2014-04-02, 09:07:04,VALID,916.814,VALID,0,VALID,83.5221,VALID,319.315,VALID,22.9557,VALID,161,VALID,1.58398,
2014-04-02, 09:08:04,VALID,916.775,VALID,0,VALID,82.8132,VALID,318.778,VALID,22.8777,VALID,172,VALID,1.50664,
2014-04-02, 09:09:04,VALID,916.793,VALID,0,VALID,84.3455,VALID,316.737,VALID,22.9167,VALID,164,VALID,1.29141,
2014-04-02, 09:10:04,VALID,916.856,VALID,0,VALID,82.3558,VALID,312.331,VALID,22.9167,VALID,175,VALID,2.1375,
2014-04-02, 09:11:04,VALID,916.844,VALID,0,VALID,83.3544,VALID,306.315,VALID,22.9167,VALID,198,VALID,2.06055,
2014-04-02, 09:12:04,VALID,916.864,VALID,0,VALID,83.7127,VALID,298.364,VALID,22.9753,VALID,183,VALID,1.29648,
2014-04-02, 09:13:04,VALID,916.887,VALID,0,VALID,85.1002,VALID,291.058,VALID,23.0143,VALID,171,VALID,0.721094,
2014-04-02, 09:14:04,VALID,916.852,VALID,0,VALID,84.2083,VALID,284.074,VALID,23.0125,VALID,132,VALID,1.425,
2014-04-02, 09:15:04,VALID,916.905,VALID,0,VALID,84.1091,VALID,277.521,VALID,22.993,VALID,137,VALID,1.68672,
2014-04-02, 09:16:04,VALID,916.923,VALID,0,VALID,82.1957,VALID,267.206,VALID,22.8972,VALID,146,VALID,1.87812,
2014-04-02, 09:17:04,VALID,916.874,VALID,0,VALID,82.5616,VALID,257.536,VALID,22.7979,VALID,115,VALID,2.83242,
2014-04-02, 09:18:04,VALID,916.901,VALID,0,VALID,83.9109,VALID,250.768,VALID,22.7198,VALID,144,VALID,1.74766,
2014-04-02, 09:19:04,VALID,916.899,VALID,0,VALID,83.5221,VALID,247.437,VALID,22.6613,VALID,157,VALID,1.56719,
2014-04-02, 09:20:04,VALID,916.916,VALID,0,VALID,84.2235,VALID,245.073,VALID,22.6418,VALID,152,VALID,1.6957,
2014-04-02, 09:21:04,VALID,916.906,VALID,0,VALID,83.5298,VALID,244.751,VALID,22.6028,VALID,147,VALID,1.84297,
2014-04-02, 09:22:04,VALID,916.912,VALID,0,VALID,84.2311,VALID,244.429,VALID,22.663,VALID,150,VALID,2.27109,
2014-04-02, 09:23:04,VALID,916.884,VALID,0,VALID,84.0329,VALID,244.751,VALID,22.663,VALID,164,VALID,2.00938,
2014-04-02, 09:24:04,VALID,916.901,VALID,0,VALID,84.3912,VALID,245.396,VALID,22.6223,VALID,143,VALID,2.10195,
2014-04-02, 09:25:04,VALID,916.893,VALID,0,VALID,84.6352,VALID,246.148,VALID,22.6223,VALID,158,VALID,1.96094,
2014-04-02, 09:26:04,VALID,916.909,VALID,0,VALID,85.0163,VALID,247.437,VALID,22.6206,VALID,154,VALID,1.42109,
2014-04-02, 09:27:04,VALID,916.879,VALID,0,VALID,84.5513,VALID,248.619,VALID,22.7198,VALID,143,VALID,0.937109,
2014-04-02, 09:28:04,VALID,916.892,VALID,0,VALID,84.376,VALID,249.693,VALID,22.7198,VALID,136,VALID,1.72773,
2014-04-02, 09:29:04,VALID,916.909,VALID,0,VALID,83.9948,VALID,250.983,VALID,22.6613,VALID,146,VALID,2.35313,
2014-04-02, 09:30:04,VALID,916.907,VALID,0,VALID,84.1396,VALID,252.272,VALID,22.6418,VALID,152,VALID,1.79414,
2014-04-02, 09:31:04,VALID,916.917,VALID,0,VALID,83.5679,VALID,254.421,VALID,22.663,VALID,145,VALID,1.98281,
2014-04-02, 09:32:04,VALID,916.879,VALID,0,VALID,84.1854,VALID,256.784,VALID,22.7003,VALID,151,VALID,1.1918,
2014-04-02, 09:33:04,VALID,916.934,VALID,0,VALID,83.6136,VALID,258.718,VALID,22.7394,VALID,149,VALID,1.9707,
2014-04-02, 09:34:04,VALID,916.918,VALID,0,VALID,83.7127,VALID,260.975,VALID,22.7996,VALID,164,VALID,2.3375,
2014-04-02, 09:35:04,VALID,916.923,VALID,0,VALID,83.1334,VALID,263.553,VALID,22.7589,VALID,137,VALID,2.30586,
2014-04-02, 09:36:04,VALID,916.933,VALID,0,VALID,82.5463,VALID,265.38,VALID,22.7606,VALID,141,VALID,2.22383,
2014-04-02, 09:37:04,VALID,916.934,VALID,0,VALID,83.5374,VALID,268.066,VALID,22.7784,VALID,157,VALID,2.24375,
2014-04-02, 09:38:04,VALID,916.951,VALID,0,VALID,83.9109,VALID,271.504,VALID,22.7589,VALID,151,VALID,1.56641,
2014-04-02, 09:39:04,VALID,916.922,VALID,0,VALID,83.606,VALID,273.653,VALID,22.8174,VALID,161,VALID,1.74023,
2014-04-02, 09:40:04,VALID,916.89,VALID,0,VALID,82.0127,VALID,276.446,VALID,22.7784,VALID,152,VALID,2.33086,
2014-04-02, 09:41:04,VALID,916.945,VALID,0,VALID,83.8271,VALID,279.777,VALID,22.8191,VALID,137,VALID,1.60391,
2014-04-02, 09:42:04,VALID,916.927,VALID,0,VALID,84.0177,VALID,283.537,VALID,22.8174,VALID,159,VALID,1.50312,
2014-04-02, 09:43:04,VALID,916.928,VALID,0,VALID,84.315,VALID,287.727,VALID,22.8759,VALID,149,VALID,1.9125,
2014-04-02, 09:44:04,VALID,916.919,VALID,0,VALID,83.5298,VALID,292.455,VALID,22.8955,VALID,164,VALID,1.7625,
2014-04-02, 09:45:04,VALID,916.932,VALID,0,VALID,82.5006,VALID,297.29,VALID,22.9167,VALID,158,VALID,1.9293,
2014-04-02, 09:46:04,VALID,916.901,VALID,0,VALID,83.2477,VALID,302.554,VALID,22.9557,VALID,177,VALID,1.1332,
2014-04-02, 09:47:04,VALID,916.902,VALID,0,VALID,83.4307,VALID,308.141,VALID,23.0746,VALID,139,VALID,1.75547,
2014-04-02, 09:48:04,VALID,916.899,VALID,0,VALID,82.5921,VALID,315.125,VALID,23.0728,VALID,147,VALID,1.42891,
2014-04-02, 09:49:04,VALID,916.908,VALID,0,VALID,82.4167,VALID,321.249,VALID,23.1314,VALID,157,VALID,1.39883,
2014-04-02, 09:50:04,VALID,916.922,VALID,0,VALID,82.6683,VALID,326.514,VALID,23.1899,VALID,153,VALID,1.03125,
2014-04-02, 09:51:04,VALID,916.939,VALID,0,VALID,82.7903,VALID,334.249,VALID,23.1899,VALID,164,VALID,1.4332,
2014-04-02, 09:52:04,VALID,916.979,VALID,0,VALID,80.5109,VALID,341.126,VALID,23.1509,VALID,163,VALID,3.18086,
2014-04-02, 09:53:04,VALID,916.942,VALID,0,VALID,81.8526,VALID,348.002,VALID,23.1314,VALID,157,VALID,1.74336,
2014-04-02, 09:54:04,VALID,916.956,VALID,0,VALID,82.5997,VALID,354.986,VALID,23.1899,VALID,169,VALID,2.08984,
2014-04-02, 09:55:04,VALID,916.978,VALID,0,VALID,82.6607,VALID,378.515,VALID,23.2875,VALID,141,VALID,1.86133,
2014-04-02, 09:56:04,VALID,916.942,VALID,0,VALID,81.7154,VALID,401.722,VALID,23.3656,VALID,93,VALID,2.09844,
2014-04-02, 09:57:04,VALID,916.965,VALID,0,VALID,82.0584,VALID,426.434,VALID,23.4437,VALID,140,VALID,1.06758,
2014-04-02, 09:58:04,VALID,916.981,VALID,0,VALID,80.9683,VALID,445.558,VALID,23.5803,VALID,148,VALID,1.42383,
2014-04-02, 09:59:04,VALID,916.982,VALID,0,VALID,80.2288,VALID,463.286,VALID,23.6388,VALID,130,VALID,2.05742,
2014-04-02, 10:00:04,VALID,916.994,VALID,0,VALID,81.197,VALID,484.13,VALID,23.7328,VALID,132,VALID,1.39141,
2014-04-02, 10:01:04,VALID,916.965,VALID,0,VALID,80.5033,VALID,498.097,VALID,23.8127,VALID,98,VALID,1.81055,
2014-04-02, 10:02:04,VALID,916.967,VALID,0,VALID,77.7817,VALID,514.965,VALID,23.9121,VALID,128,VALID,2.55977,
2014-04-02, 10:03:04,VALID,916.99,VALID,0,VALID,80.2288,VALID,533.66,VALID,23.9902,VALID,89,VALID,1.58984,
2014-04-02, 10:04:04,VALID,916.976,VALID,0,VALID,78.4678,VALID,544.834,VALID,24.0701,VALID,139,VALID,1.67813,
2014-04-02, 10:05:04,VALID,916.972,VALID,0,VALID,78.5745,VALID,561.81,VALID,24.1659,VALID,149,VALID,1.66602,
2014-04-02, 10:06:04,VALID,917.007,VALID,0,VALID,75.7996,VALID,573.951,VALID,24.244,VALID,141,VALID,1.4957,
2014-04-02, 10:07:04,VALID,916.975,VALID,0,VALID,78.3382,VALID,570.942,VALID,24.3788,VALID,145,VALID,1.09258,
2014-04-02, 10:08:04,VALID,916.992,VALID,0,VALID,77.5911,VALID,565.355,VALID,24.5564,VALID,129,VALID,0.964063,
2014-04-02, 10:09:04,VALID,917,VALID,0,VALID,75.1593,VALID,532.801,VALID,24.5173,VALID,112,VALID,1.44492,
2014-04-02, 10:10:04,VALID,916.96,VALID,0,VALID,73.4059,VALID,487.461,VALID,24.5368,VALID,74,VALID,1.45469,
2014-04-02, 10:11:04,VALID,916.946,VALID,0,VALID,75.0449,VALID,496.486,VALID,24.5368,VALID,112,VALID,1.32969,
2014-04-02, 10:12:04,VALID,916.936,VALID,0,VALID,73.9395,VALID,508.304,VALID,24.5954,VALID,72,VALID,2.24609,
2014-04-02, 10:13:04,VALID,916.91,VALID,0,VALID,71.7897,VALID,518.081,VALID,24.6149,VALID,53,VALID,1.84453,
2014-04-02, 10:14:04,VALID,916.863,VALID,0,VALID,71.6906,VALID,517.759,VALID,24.693,VALID,53,VALID,1.56914,
2014-04-02, 10:15:04,VALID,916.885,VALID,0,VALID,74.1149,VALID,476.394,VALID,24.7711,VALID,22,VALID,2.30781,
2014-04-02, 10:16:04,VALID,916.975,VALID,0,VALID,73.0933,VALID,493.477,VALID,24.8083,VALID,133,VALID,1.55859,
2014-04-02, 10:17:04,VALID,916.97,VALID,0,VALID,70.2803,VALID,495.089,VALID,24.7907,VALID,83,VALID,1.60859,
2014-04-02, 10:18:04,VALID,916.938,VALID,0,VALID,70.9816,VALID,509.486,VALID,24.8278,VALID,86,VALID,0.398828,
2014-04-02, 10:19:04,VALID,916.971,VALID,0,VALID,71.5153,VALID,540.644,VALID,24.9821,VALID,150,VALID,1.28086,
2014-04-02, 10:20:04,VALID,916.998,VALID,0,VALID,73.0476,VALID,491.113,VALID,25.1988,VALID,140,VALID,0.928906,
2014-04-02, 10:21:04,VALID,916.966,VALID,0,VALID,71.8278,VALID,470.055,VALID,25.2769,VALID,142,VALID,0.626172,
2014-04-02, 10:22:04,VALID,916.973,VALID,0,VALID,72.2395,VALID,489.394,VALID,25.4527,VALID,139,VALID,0.601953,
2014-04-02, 10:23:04,VALID,916.995,VALID,0,VALID,69.0224,VALID,519.478,VALID,25.607,VALID,92,VALID,1.71133,
2014-04-02, 10:24:04,VALID,916.983,VALID,0,VALID,68.7785,VALID,522.701,VALID,25.5484,VALID,65,VALID,1.96992,
2014-04-02, 10:25:04,VALID,916.978,VALID,0,VALID,68.7403,VALID,541.826,VALID,25.3746,VALID,73,VALID,2.31641,
2014-04-02, 10:26:04,VALID,916.909,VALID,0,VALID,67.8484,VALID,548.809,VALID,25.2164,VALID,44,VALID,2.35742,
2014-04-02, 10:27:04,VALID,916.945,VALID,0,VALID,70.4404,VALID,443.302,VALID,25.1188,VALID,65,VALID,2.0832,
2014-04-02, 10:28:04,VALID,916.968,VALID,0,VALID,73.97,VALID,389.044,VALID,25.1402,VALID,61,VALID,2.77656,
2014-04-02, 10:29:04,VALID,916.97,VALID,0,VALID,70.9206,VALID,492.94,VALID,25.0798,VALID,81,VALID,2.27578,
2014-04-02, 10:30:04,VALID,916.97,VALID,0,VALID,70.7834,VALID,537.098,VALID,25.0036,VALID,124,VALID,2.2332,